Weather History for KPEX - June, 2012

Change the Weather History Date:

Monday, June 11, 2012

  Actual Average (KLJF) Record (KLJF)
Temperature  
Mean Temperature 59 °F -  
Max Temperature 66 °F 79 °F 99 °F (1956)
Min Temperature 52 °F 57 °F 36 °F (1958)
Degree Days  
Heating Degree Days 6    
Growing Degree Days 9 (Base 50)    
Moisture  
Dew Point 50 °F    
Average Humidity 68    
Maximum Humidity 94    
Minimum Humidity 41    
Precipitation  
Precipitation 0.02 in - - ()
Sea Level Pressure  
Sea Level Pressure 29.82 in    
Wind  
Wind Speed 11 mph (WSW)    
Max Wind Speed 26 mph    
Max Gust Speed 33 mph    
Visibility 8 miles    
Events      
Averages and records for this station are not official NWS values.
T = Trace of Precipitation, MM = Missing Value Source: NWS Daily Summary

Daily Weather History Graph

Daily Weather History Graph

Search for Another Location

Airport or City:

Trip Planner

Search our weather history database for the weather conditions in past years. The results will help you decide how hot, cold, wet, or windy it might be!

Date:

Astronomy

Jun. 11, 2012 Rise Set
Actual Time 5:30 AM CDT 9:07 PM CDT
Civil Twilight 4:52 AM CDT 9:44 PM CDT
Nautical Twilight 4:02 AM CDT 10:35 PM CDT
Astronomical Twilight 2:56 AM CDT 11:42 PM CDT
Moon 1:08 AM CDT (6/11) 1:41 PM CDT (6/11)
Length of Visible Light 16h 52m
Length of Day
15h 36m
Waning Gibbous, 47% of the Moon is Illuminated
Jun 11
Waning Gibbous
Jun 19
New
Jun 26
First Quarter
Jul 3
Full
Jul 10
Last Quarter

Hourly Weather History & Observations

Time (CDT) Temp. Dew Point Humidity Pressure Visibility Wind Dir Wind Speed Gust Speed Precip Events Conditions
12:14 AM 59.9 °F 57.9 °F 93% 29.77 in 7.0 mi Calm Calm - N/A   Clear
12:33 AM 59.9 °F 58.1 °F 94% 29.76 in 10.0 mi South 3.5 mph - N/A   Clear
12:54 AM 59.9 °F 58.1 °F 94% 29.76 in 7.0 mi Calm Calm - N/A   Clear
1:13 AM 59.9 °F 57.7 °F 93% 29.75 in 10.0 mi Calm Calm - N/A   Clear
1:33 AM 59.5 °F 57.4 °F 93% 29.74 in 7.0 mi SSE 5.8 mph - N/A   Clear
1:53 AM 59.7 °F 57.6 °F 93% 29.72 in 7.0 mi SSE 6.9 mph - N/A   Clear
2:13 AM 59.9 °F 57.6 °F 92% 29.71 in 7.0 mi SSE 6.9 mph - N/A   Clear
2:34 AM 59.9 °F 57.6 °F 92% 29.70 in 7.0 mi SSE 9.2 mph - N/A   Clear
2:53 AM 59.4 °F 57.6 °F 94% 29.70 in 5.0 mi SSE 8.1 mph - N/A   Clear
3:14 AM 59.4 °F 57.6 °F 94% 29.68 in 7.0 mi SSE 8.1 mph - N/A   Clear
3:33 AM 59.0 °F 57.2 °F 94% 29.69 in 7.0 mi South 4.6 mph - N/A   Clear
3:53 AM 58.1 °F 56.5 °F 94% 29.69 in 7.0 mi SSE 5.8 mph - N/A   Clear
4:13 AM 58.1 °F 56.3 °F 94% 29.68 in 5.0 mi SSE 5.8 mph - N/A   Clear
4:34 AM 58.1 °F 56.3 °F 94% 29.69 in 7.0 mi South 3.5 mph - N/A   Clear
4:53 AM 58.1 °F 55.9 °F 93% 29.68 in 7.0 mi South 5.8 mph - N/A   Clear
5:13 AM 58.5 °F 55.9 °F 91% 29.68 in 7.0 mi SSE 8.1 mph - N/A   Clear
5:34 AM 58.6 °F 56.3 °F 92% 29.69 in 7.0 mi South 8.1 mph - N/A   Clear
5:53 AM 59.0 °F 57.2 °F 94% 29.69 in 7.0 mi South 9.2 mph 16.1 mph N/A   Clear
6:13 AM 59.2 °F 57.0 °F 93% 29.70 in 7.0 mi SSW 9.2 mph 16.1 mph N/A   Clear
6:34 AM 59.9 °F 57.2 °F 91% 29.72 in 10.0 mi SW 13.8 mph 17.3 mph N/A   Clear
6:53 AM 61.0 °F 57.6 °F 88% 29.73 in 7.0 mi SW 13.8 mph - N/A   Clear
7:14 AM 61.9 °F 57.2 °F 85% 29.73 in 10.0 mi SSW 13.8 mph 21.9 mph N/A   Clear
7:33 AM 63.0 °F 56.5 °F 79% 29.72 in 10.0 mi SSW 11.5 mph 18.4 mph N/A   Clear
7:54 AM 63.7 °F 55.0 °F 73% 29.73 in 10.0 mi SW 19.6 mph 25.3 mph N/A   Clear
8:13 AM 63.0 °F 54.3 °F 73% 29.73 in 7.0 mi WSW 16.1 mph 23.0 mph N/A   Clear
8:33 AM 62.6 °F 53.4 °F 72% 29.74 in 7.0 mi WSW 19.6 mph 23.0 mph N/A   Clear
8:53 AM 62.8 °F 53.2 °F 71% 29.74 in 10.0 mi West 13.8 mph 25.3 mph N/A   Clear
9:14 AM 63.0 °F 53.4 °F 71% 29.75 in 10.0 mi WSW 18.4 mph 25.3 mph N/A   Clear
9:33 AM 63.0 °F 52.9 °F 70% 29.75 in 10.0 mi West 18.4 mph - N/A   Clear
9:53 AM 63.9 °F 53.2 °F 68% 29.75 in 10.0 mi WSW 18.4 mph 29.9 mph N/A   Scattered Clouds
10:13 AM 63.7 °F 53.1 °F 68% 29.76 in 10.0 mi West 20.7 mph - N/A   Mostly Cloudy
10:33 AM 64.4 °F 52.5 °F 65% 29.77 in 10.0 mi West 21.9 mph 27.6 mph N/A   Mostly Cloudy
10:54 AM 64.9 °F 52.9 °F 65% 29.77 in 7.0 mi West 21.9 mph 27.6 mph N/A   Scattered Clouds
11:14 AM 65.3 °F 52.0 °F 62% 29.78 in 10.0 mi West 19.6 mph 25.3 mph N/A   Scattered Clouds
11:33 AM 66.0 °F 51.4 °F 59% 29.79 in 10.0 mi West 20.7 mph 26.5 mph N/A   Scattered Clouds
11:53 AM 66.2 °F 49.5 °F 55% 29.80 in 10.0 mi West 18.4 mph 27.6 mph N/A   Mostly Cloudy
12:13 PM 66.0 °F 48.9 °F 54% 29.80 in 10.0 mi West 19.6 mph 24.2 mph N/A   Mostly Cloudy
12:33 PM 66.0 °F 50.7 °F 58% 29.81 in 10.0 mi West 16.1 mph 23.0 mph N/A   Overcast
12:54 PM 64.9 °F 51.3 °F 61% 29.82 in 7.0 mi West 23.0 mph 29.9 mph N/A   Overcast
1:13 PM 64.4 °F 51.4 °F 63% 29.82 in 10.0 mi West 19.6 mph 28.8 mph N/A   Overcast
1:34 PM 64.8 °F 51.1 °F 61% 29.82 in 7.0 mi West 18.4 mph 28.8 mph N/A   Overcast
1:53 PM 65.8 °F 52.0 °F 61% 29.82 in 10.0 mi West 20.7 mph 28.8 mph N/A   Overcast
2:14 PM 65.7 °F 50.2 °F 57% 29.83 in 10.0 mi West 24.2 mph 28.8 mph N/A   Overcast
2:33 PM 66.0 °F 49.1 °F 54% 29.83 in 10.0 mi West 21.9 mph 33.4 mph N/A   Overcast
2:53 PM 64.8 °F 48.9 °F 56% 29.85 in 7.0 mi West 24.2 mph 32.2 mph N/A   Overcast
3:13 PM 65.1 °F 46.9 °F 52% 29.86 in 7.0 mi West 26.5 mph 31.1 mph N/A   Overcast
3:33 PM 64.0 °F 45.7 °F 51% 29.87 in 7.0 mi West 19.6 mph 28.8 mph N/A   Overcast
3:53 PM 64.2 °F 45.0 °F 50% 29.88 in 10.0 mi West 24.2 mph 31.1 mph N/A   Mostly Cloudy
4:14 PM 65.5 °F 44.2 °F 46% 29.89 in 7.0 mi West 16.1 mph 29.9 mph N/A   Scattered Clouds
4:33 PM 64.4 °F 43.5 °F 47% 29.90 in 7.0 mi West 17.3 mph 26.5 mph N/A   Mostly Cloudy
4:53 PM 63.1 °F 43.3 °F 48% 29.90 in 7.0 mi West 16.1 mph 21.9 mph N/A   Mostly Cloudy
5:13 PM 64.9 °F 41.4 °F 42% 29.91 in 7.0 mi West 23.0 mph 31.1 mph N/A   Mostly Cloudy
5:34 PM 64.6 °F 41.9 °F 44% 29.91 in 10.0 mi WNW 24.2 mph 32.2 mph N/A   Scattered Clouds
5:53 PM 64.9 °F 40.6 °F 41% 29.92 in 7.0 mi West 18.4 mph 28.8 mph N/A   Scattered Clouds
6:13 PM 64.6 °F 41.7 °F 43% 29.92 in 10.0 mi WNW 17.3 mph 27.6 mph N/A   Mostly Cloudy
6:33 PM 64.2 °F 41.5 °F 44% 29.93 in 10.0 mi WNW 16.1 mph 26.5 mph N/A   Mostly Cloudy
6:53 PM 63.5 °F 41.9 °F 45% 29.94 in 10.0 mi WNW 13.8 mph 21.9 mph N/A   Scattered Clouds
7:13 PM 62.6 °F 41.5 °F 46% 29.94 in 7.0 mi WNW 15.0 mph 19.6 mph N/A   Clear
7:33 PM 61.0 °F 42.6 °F 51% 29.95 in 10.0 mi WNW 11.5 mph 16.1 mph N/A   Mostly Cloudy
7:53 PM 61.2 °F 41.5 °F 48% 29.96 in 7.0 mi WNW 16.1 mph 27.6 mph N/A   Overcast
8:13 PM 59.2 °F 41.5 °F 52% 29.97 in 7.0 mi West 18.4 mph 25.3 mph N/A   Scattered Clouds
8:33 PM 57.9 °F 39.6 °F 50% 29.97 in 10.0 mi WNW 16.1 mph 25.3 mph N/A   Clear
8:53 PM 56.7 °F 38.8 °F 51% 29.98 in 7.0 mi WNW 16.1 mph 25.3 mph N/A   Clear
9:13 PM 55.4 °F 38.5 °F 53% 29.99 in 5.0 mi WNW 15.0 mph 23.0 mph N/A   Haze
9:34 PM 54.3 °F 38.7 °F 55% 30.00 in 7.0 mi WNW 10.4 mph 19.6 mph N/A   Clear
10:13 PM 52.7 °F 38.8 °F 59% 30.02 in 10.0 mi West 9.2 mph - N/A   Clear
10:33 PM 52.2 °F 38.8 °F 60% 30.03 in 10.0 mi WNW 8.1 mph - N/A   Clear
10:53 PM 52.2 °F 38.8 °F 60% 30.03 in 10.0 mi WNW 6.9 mph - N/A   Mostly Cloudy
11:13 PM 52.9 °F 39.2 °F 60% 30.03 in 10.0 mi WNW 11.5 mph - N/A   Overcast
11:33 PM 53.2 °F 39.2 °F 59% 30.03 in 10.0 mi WNW 12.7 mph 16.1 mph N/A   Overcast
11:53 PM 53.2 °F 39.0 °F 59% 30.04 in 10.0 mi WNW 12.7 mph 20.7 mph N/A   Overcast